Time,TemperatureF,DewpointF,PressureIn,WindDirection,WindDirectionDegrees,WindSpeedMPH,WindSpeedGustMPH,Humidity,HourlyPrecipIn,Conditions,Clouds,dailyrainin,SoftwareType,DateUTC
2013-01-18 00:02:00,20.0,9.0,-100.00,NNW,343,3.0,4.0,63,-99.99,,,-99.99,,2013-01-18 07:02:00,
2013-01-18 00:11:00,20.0,9.0,-100.00,NNW,342,3.0,3.0,63,-99.99,,,-99.99,,2013-01-18 07:11:00,
2013-01-18 00:22:00,19.0,9.0,-100.00,NNW,330,5.0,6.0,66,-99.99,,,-99.99,,2013-01-18 07:22:00,
2013-01-18 00:32:00,17.0,8.0,-100.00,North,3,4.0,4.0,67,-99.99,,,-99.99,,2013-01-18 07:32:00,
2013-01-18 00:42:00,15.0,7.0,-100.00,North,11,4.0,4.0,68,-99.99,,,-99.99,,2013-01-18 07:42:00,
2013-01-18 00:52:00,17.0,7.0,-100.00,NNE,23,3.0,4.0,65,-99.99,,,-99.99,,2013-01-18 07:52:00,
2013-01-18 01:02:00,16.0,7.0,-100.00,NE,35,3.0,3.0,67,-99.99,,,-99.99,,2013-01-18 08:02:00,
2013-01-18 01:11:00,16.0,8.0,-100.00,NE,56,0.0,1.0,69,-99.99,,,-99.99,,2013-01-18 08:11:00,
2013-01-18 01:22:00,17.0,8.0,-100.00,North,8,0.0,2.0,68,-99.99,,,-99.99,,2013-01-18 08:22:00,
2013-01-18 01:32:00,17.0,8.0,-100.00,NNW,333,2.0,2.0,67,-99.99,,,-99.99,,2013-01-18 08:32:00,
2013-01-18 01:42:00,19.0,9.0,-100.00,West,281,3.0,4.0,63,-99.99,,,-99.99,,2013-01-18 08:42:00,
2013-01-18 01:52:00,20.0,9.0,-100.00,NNW,327,1.0,2.0,61,-99.99,,,-99.99,,2013-01-18 08:52:00,
2013-01-18 02:02:00,20.0,9.0,-100.00,NNW,333,3.0,4.0,62,-99.99,,,-99.99,,2013-01-18 09:02:00,
2013-01-18 02:12:00,20.0,9.0,-100.00,NW,322,3.0,5.0,63,-99.99,,,-99.99,,2013-01-18 09:12:00,
2013-01-18 02:22:00,20.0,9.0,-100.00,WNW,291,2.0,3.0,61,-99.99,,,-99.99,,2013-01-18 09:22:00,
2013-01-18 02:32:00,21.0,9.0,-100.00,West,260,2.0,2.0,59,-99.99,,,-99.99,,2013-01-18 09:32:00,
2013-01-18 02:42:00,20.0,9.0,-100.00,North,0,0.0,1.0,60,-99.99,,,-99.99,,2013-01-18 09:42:00,
2013-01-18 02:52:00,19.0,8.0,-100.00,North,0,0.0,1.0,60,-99.99,,,-99.99,,2013-01-18 09:52:00,
2013-01-18 03:02:00,19.0,8.0,-100.00,North,0,0.0,1.0,60,-99.99,,,-99.99,,2013-01-18 10:02:00,
2013-01-18 03:11:00,18.0,9.0,-100.00,NE,52,2.0,4.0,66,-99.99,,,-99.99,,2013-01-18 10:11:00,
2013-01-18 03:22:00,16.0,8.0,-100.00,NE,36,3.0,4.0,70,-99.99,,,-99.99,,2013-01-18 10:22:00,
2013-01-18 03:30:00,19.0,9.0,-100.00,NNW,331,2.0,3.0,65,-99.99,,,-99.99,,2013-01-18 10:30:00,
2013-01-18 03:32:00,17.0,8.0,-100.00,North,11,3.0,3.0,66,-99.99,,,-99.99,,2013-01-18 10:32:00,
2013-01-18 03:42:00,19.0,9.0,-100.00,NNE,13,2.0,2.0,65,-99.99,,,-99.99,,2013-01-18 10:42:00,
2013-01-18 03:52:00,19.0,9.0,-100.00,NNE,13,2.0,2.0,65,-99.99,,,-99.99,,2013-01-18 10:52:00,
2013-01-18 04:02:00,19.0,9.0,-100.00,NNE,13,2.0,2.0,65,-99.99,,,-99.99,,2013-01-18 11:02:00,
2013-01-18 04:12:00,19.0,9.0,-100.00,NNW,331,2.0,3.0,65,-99.99,,,-99.99,,2013-01-18 11:12:00,
2013-01-18 04:22:00,19.0,9.0,-100.00,NNW,331,2.0,3.0,65,-99.99,,,-99.99,,2013-01-18 11:22:00,
2013-01-18 06:22:00,20.0,8.0,-100.00,NW,309,4.0,5.0,57,-99.99,,,-99.99,,2013-01-18 13:22:00,
2013-01-18 06:33:00,22.0,9.0,-100.00,West,261,3.0,3.0,55,-99.99,,,-99.99,,2013-01-18 13:33:00,
2013-01-18 06:42:00,22.0,9.0,-100.00,West,261,3.0,3.0,55,-99.99,,,-99.99,,2013-01-18 13:42:00,
2013-01-18 06:52:00,22.0,8.0,-100.00,West,279,0.0,1.0,56,-99.99,,,-99.99,,2013-01-18 13:52:00,
2013-01-18 07:02:00,20.0,7.0,-100.00,SSW,198,1.0,2.0,58,-99.99,,,-99.99,,2013-01-18 14:02:00,
2013-01-18 07:12:00,20.0,7.0,-100.00,SSW,198,1.0,2.0,58,-99.99,,,-99.99,,2013-01-18 14:12:00,
2013-01-18 07:22:00,20.0,7.0,-100.00,SW,235,3.0,3.0,56,-99.99,,,-99.99,,2013-01-18 14:22:00,
2013-01-18 07:33:00,21.0,7.0,-100.00,WSW,249,4.0,4.0,54,-99.99,,,-99.99,,2013-01-18 14:33:00,
2013-01-18 07:42:00,22.0,7.0,-100.00,WSW,254,3.0,4.0,51,-99.99,,,-99.99,,2013-01-18 14:42:00,
2013-01-18 07:53:00,22.0,7.0,-100.00,WSW,249,4.0,4.0,53,-99.99,,,-99.99,,2013-01-18 14:53:00,
2013-01-18 08:02:00,21.0,7.0,-100.00,WSW,250,6.0,6.0,53,-99.99,,,-99.99,,2013-01-18 15:02:00,
2013-01-18 08:12:00,20.0,6.0,-100.00,WSW,248,8.0,8.0,55,-99.99,,,-99.99,,2013-01-18 15:12:00,
2013-01-18 08:22:00,20.0,6.0,-100.00,WSW,248,8.0,8.0,55,-99.99,,,-99.99,,2013-01-18 15:22:00,
2013-01-18 08:33:00,16.0,2.0,-100.00,WSW,242,10.0,10.0,52,-99.99,,,-99.99,,2013-01-18 15:33:00,
2013-01-18 08:42:00,17.0,3.0,-100.00,SW,228,6.0,9.0,52,-99.99,,,-99.99,,2013-01-18 15:42:00,
2013-01-18 08:52:00,16.0,4.0,-100.00,SW,221,7.0,7.0,57,-99.99,,,-99.99,,2013-01-18 15:52:00,
2013-01-18 09:02:00,19.0,3.0,-100.00,SW,217,8.0,8.0,49,-99.99,,,-99.99,,2013-01-18 16:02:00,
2013-01-18 09:12:00,20.0,3.0,-100.00,SW,216,5.0,6.0,47,-99.99,,,-99.99,,2013-01-18 16:12:00,
2013-01-18 09:22:00,20.0,3.0,-100.00,SW,216,5.0,6.0,47,-99.99,,,-99.99,,2013-01-18 16:22:00,
2013-01-18 09:32:00,20.0,4.0,-100.00,WSW,255,7.0,7.0,48,-99.99,,,-99.99,,2013-01-18 16:32:00,
2013-01-18 09:42:00,19.0,4.0,-100.00,WSW,247,7.0,7.0,49,-99.99,,,-99.99,,2013-01-18 16:42:00,
2013-01-18 09:52:00,19.0,4.0,-100.00,WSW,247,7.0,7.0,49,-99.99,,,-99.99,,2013-01-18 16:52:00,
2013-01-18 10:02:00,23.0,6.0,-100.00,SW,231,3.0,4.0,46,-99.99,,,-99.99,,2013-01-18 17:02:00,
2013-01-18 10:12:00,24.0,6.0,-100.00,SW,226,3.0,4.0,46,-99.99,,,-99.99,,2013-01-18 17:12:00,
2013-01-18 10:22:00,24.0,6.0,-100.00,SW,226,3.0,4.0,46,-99.99,,,-99.99,,2013-01-18 17:22:00,
2013-01-18 10:33:00,27.0,6.0,-100.00,SSW,203,1.0,2.0,40,-99.99,,,-99.99,,2013-01-18 17:33:00,
2013-01-18 10:42:00,27.0,7.0,-100.00,NNW,337,2.0,3.0,41,-99.99,,,-99.99,,2013-01-18 17:42:00,
2013-01-18 10:52:00,25.0,9.0,-100.00,NNE,28,4.0,5.0,51,-99.99,,,-99.99,,2013-01-18 17:52:00,
2013-01-18 11:03:00,24.0,10.0,-100.00,ENE,57,6.0,7.0,54,-99.99,,,-99.99,,2013-01-18 18:03:00,
2013-01-18 11:12:00,24.0,10.0,-100.00,ENE,57,6.0,7.0,54,-99.99,,,-99.99,,2013-01-18 18:12:00,
2013-01-18 11:22:00,23.0,8.0,-100.00,NE,55,5.0,5.0,51,-99.99,,,-99.99,,2013-01-18 18:22:00,
2013-01-18 11:32:00,24.0,8.0,-100.00,NE,44,3.0,5.0,50,-99.99,,,-99.99,,2013-01-18 18:32:00,
2013-01-18 11:42:00,28.0,7.0,-100.00,NW,321,2.0,2.0,41,-99.99,,,-99.99,,2013-01-18 18:42:00,
2013-01-18 11:52:00,26.0,9.0,-100.00,WSW,251,3.0,4.0,48,-99.99,,,-99.99,,2013-01-18 18:52:00,
2013-01-18 12:02:00,27.0,12.0,-100.00,SSW,210,5.0,5.0,52,-99.99,,,-99.99,,2013-01-18 19:02:00,
2013-01-18 12:12:00,27.0,12.0,-100.00,SSW,209,7.0,7.0,51,-99.99,,,-99.99,,2013-01-18 19:12:00,
2013-01-18 12:22:00,27.0,12.0,-100.00,SSW,209,7.0,7.0,51,-99.99,,,-99.99,,2013-01-18 19:22:00,
2013-01-18 12:32:00,28.0,11.0,-100.00,SSW,204,4.0,5.0,46,-99.99,,,-99.99,,2013-01-18 19:32:00,
2013-01-18 12:42:00,32.0,13.0,-100.00,East,92,2.0,4.0,44,-99.99,,,-99.99,,2013-01-18 19:42:00,
2013-01-18 12:52:00,31.0,11.0,-100.00,NE,44,2.0,3.0,42,-99.99,,,-99.99,,2013-01-18 19:52:00,
2013-01-18 13:02:00,34.0,15.0,-100.00,NE,48,1.0,3.0,44,-99.99,,,-99.99,,2013-01-18 20:02:00,
2013-01-18 13:12:00,32.0,13.0,-100.00,East,98,3.0,3.0,44,-99.99,,,-99.99,,2013-01-18 20:12:00,
2013-01-18 13:22:00,32.0,13.0,-100.00,East,98,3.0,3.0,44,-99.99,,,-99.99,,2013-01-18 20:22:00,
2013-01-18 13:33:00,33.0,11.0,-100.00,ESE,115,2.0,3.0,39,-99.99,,,-99.99,,2013-01-18 20:33:00,
2013-01-18 13:42:00,32.0,14.0,-100.00,ENE,59,2.0,3.0,46,-99.99,,,-99.99,,2013-01-18 20:42:00,
2013-01-18 13:52:00,32.0,14.0,-100.00,ENE,59,2.0,3.0,46,-99.99,,,-99.99,,2013-01-18 20:52:00,
2013-01-18 14:02:00,32.0,11.0,-100.00,ENE,60,3.0,3.0,41,-99.99,,,-99.99,,2013-01-18 21:02:00,
2013-01-18 14:12:00,32.0,12.0,-100.00,NW,320,2.0,3.0,42,-99.99,,,-99.99,,2013-01-18 21:12:00,
2013-01-18 14:22:00,32.0,12.0,-100.00,NW,320,2.0,3.0,42,-99.99,,,-99.99,,2013-01-18 21:22:00,
2013-01-18 14:33:00,35.0,13.0,-100.00,NW,312,0.0,1.0,40,-99.99,,,-99.99,,2013-01-18 21:33:00,
2013-01-18 14:42:00,37.0,12.0,-100.00,SSE,156,0.0,1.0,36,-99.99,,,-99.99,,2013-01-18 21:42:00,
2013-01-18 14:52:00,33.0,12.0,-100.00,South,180,3.0,3.0,39,-99.99,,,-99.99,,2013-01-18 21:52:00,
2013-01-18 15:02:00,32.0,12.0,-100.00,South,175,4.0,4.0,42,-99.99,,,-99.99,,2013-01-18 22:02:00,
2013-01-18 15:12:00,33.0,12.0,-100.00,SSW,200,2.0,3.0,40,-99.99,,,-99.99,,2013-01-18 22:12:00,
2013-01-18 15:22:00,33.0,12.0,-100.00,SSW,200,2.0,3.0,40,-99.99,,,-99.99,,2013-01-18 22:22:00,
2013-01-18 15:32:00,32.0,14.0,-100.00,SSW,202,5.0,6.0,45,-99.99,,,-99.99,,2013-01-18 22:32:00,
2013-01-18 15:42:00,32.0,14.0,-100.00,SSW,202,5.0,6.0,45,-99.99,,,-99.99,,2013-01-18 22:42:00,
2013-01-18 15:52:00,32.0,13.0,-100.00,SSW,205,5.0,6.0,44,-99.99,,,-99.99,,2013-01-18 22:52:00,
2013-01-18 16:02:00,32.0,13.0,-100.00,SSW,205,5.0,6.0,44,-99.99,,,-99.99,,2013-01-18 23:02:00,
2013-01-18 16:11:00,32.0,13.0,-100.00,SSW,205,5.0,6.0,44,-99.99,,,-99.99,,2013-01-18 23:11:00,
2013-01-18 16:22:00,32.0,13.0,-100.00,SSW,205,5.0,6.0,44,-99.99,,,-99.99,,2013-01-18 23:22:00,
2013-01-18 16:32:00,28.0,15.0,-100.00,NE,44,6.0,6.0,59,-99.99,,,-99.99,,2013-01-18 23:32:00,
2013-01-18 16:42:00,28.0,16.0,-100.00,NE,43,5.0,5.0,59,-99.99,,,-99.99,,2013-01-18 23:42:00,
2013-01-18 16:52:00,28.0,15.0,-100.00,NNE,31,5.0,5.0,58,-99.99,,,-99.99,,2013-01-18 23:52:00,
2013-01-18 17:02:00,26.0,14.0,-100.00,NE,55,6.0,6.0,58,-99.99,,,-99.99,,2013-01-19 00:02:00,
2013-01-18 17:12:00,26.0,14.0,-100.00,NE,41,3.0,5.0,59,-99.99,,,-99.99,,2013-01-19 00:12:00,
2013-01-18 17:22:00,26.0,14.0,-100.00,NE,41,3.0,5.0,59,-99.99,,,-99.99,,2013-01-19 00:22:00,
2013-01-18 17:32:00,25.0,13.0,-100.00,North,8,3.0,3.0,60,-99.99,,,-99.99,,2013-01-19 00:32:00,
2013-01-18 17:42:00,24.0,13.0,-100.00,NNW,348,4.0,4.0,61,-99.99,,,-99.99,,2013-01-19 00:42:00,
2013-01-18 17:52:00,24.0,13.0,-100.00,NNW,333,4.0,4.0,61,-99.99,,,-99.99,,2013-01-19 00:52:00,
2013-01-18 18:02:00,25.0,13.0,-100.00,NNW,336,4.0,4.0,59,-99.99,,,-99.99,,2013-01-19 01:02:00,
2013-01-18 18:12:00,25.0,13.0,-100.00,NNW,336,3.0,3.0,58,-99.99,,,-99.99,,2013-01-19 01:12:00,
2013-01-18 18:22:00,25.0,13.0,-100.00,NNW,336,3.0,3.0,58,-99.99,,,-99.99,,2013-01-19 01:22:00,
2013-01-18 18:32:00,27.0,12.0,-100.00,WNW,297,2.0,2.0,54,-99.99,,,-99.99,,2013-01-19 01:32:00,
2013-01-18 18:42:00,26.0,14.0,-100.00,WSW,241,5.0,5.0,58,-99.99,,,-99.99,,2013-01-19 01:42:00,
2013-01-18 18:52:00,26.0,14.0,-100.00,WSW,237,4.0,4.0,59,-99.99,,,-99.99,,2013-01-19 01:52:00,
2013-01-18 19:02:00,26.0,13.0,-100.00,SSW,202,4.0,4.0,57,-99.99,,,-99.99,,2013-01-19 02:02:00,
2013-01-18 19:12:00,25.0,13.0,-100.00,SW,225,3.0,3.0,59,-99.99,,,-99.99,,2013-01-19 02:12:00,
2013-01-18 19:20:00,27.0,14.0,-100.00,West,266,5.0,5.0,56,-99.99,,,-99.99,,2013-01-19 02:20:00,
2013-01-18 19:22:00,26.0,13.0,-100.00,SW,222,5.0,5.0,58,-99.99,,,-99.99,,2013-01-19 02:22:00,
2013-01-18 19:32:00,27.0,13.0,-100.00,WSW,237,3.0,3.0,55,-99.99,,,-99.99,,2013-01-19 02:32:00,
2013-01-18 19:42:00,27.0,13.0,-100.00,WSW,237,3.0,3.0,55,-99.99,,,-99.99,,2013-01-19 02:42:00,
2013-01-18 19:52:00,27.0,14.0,-100.00,West,266,5.0,5.0,56,-99.99,,,-99.99,,2013-01-19 02:52:00,
2013-01-18 20:02:00,27.0,14.0,-100.00,West,266,5.0,5.0,56,-99.99,,,-99.99,,2013-01-19 03:02:00,
2013-01-18 20:11:00,27.0,14.0,-100.00,West,266,5.0,5.0,56,-99.99,,,-99.99,,2013-01-19 03:11:00,
2013-01-18 21:32:00,23.0,11.0,-100.00,NNW,328,4.0,6.0,59,-99.99,,,-99.99,,2013-01-19 04:32:00,
2013-01-18 21:42:00,24.0,11.0,-100.00,North,354,3.0,3.0,57,-99.99,,,-99.99,,2013-01-19 04:42:00,
2013-01-18 21:52:00,24.0,11.0,-100.00,NNE,12,1.0,2.0,58,-99.99,,,-99.99,,2013-01-19 04:52:00,
2013-01-18 22:03:00,24.0,11.0,-100.00,NNE,12,1.0,2.0,58,-99.99,,,-99.99,,2013-01-19 05:03:00,
2013-01-18 22:12:00,23.0,12.0,-100.00,North,0,0.0,0.0,61,-99.99,,,-99.99,,2013-01-19 05:12:00,
2013-01-18 22:22:00,24.0,12.0,-100.00,North,0,0.0,1.0,60,-99.99,,,-99.99,,2013-01-19 05:22:00,
2013-01-18 22:32:00,23.0,12.0,-100.00,North,0,0.0,1.0,61,-99.99,,,-99.99,,2013-01-19 05:32:00,
2013-01-18 22:42:00,22.0,11.0,-100.00,South,190,2.0,3.0,62,-99.99,,,-99.99,,2013-01-19 05:42:00,
2013-01-18 22:52:00,22.0,11.0,-100.00,SW,221,1.0,2.0,62,-99.99,,,-99.99,,2013-01-19 05:52:00,
2013-01-18 23:02:00,22.0,10.0,-100.00,WSW,237,6.0,6.0,60,-99.99,,,-99.99,,2013-01-19 06:02:00,
2013-01-18 23:11:00,22.0,9.0,-100.00,SW,221,6.0,7.0,56,-99.99,,,-99.99,,2013-01-19 06:11:00,
2013-01-18 23:22:00,22.0,9.0,-100.00,SW,232,10.0,10.0,57,-99.99,,,-99.99,,2013-01-19 06:22:00,
2013-01-18 23:32:00,19.0,7.0,-100.00,SW,236,10.0,10.0,58,-99.99,,,-99.99,,2013-01-19 06:32:00,
2013-01-18 23:42:00,18.0,9.0,-100.00,SW,219,3.0,4.0,65,-99.99,,,-99.99,,2013-01-19 06:42:00,
2013-01-18 23:52:00,20.0,10.0,-100.00,SW,226,2.0,3.0,66,-99.99,,,-99.99,,2013-01-19 06:52:00,